ALTAIR (RS65S)

Last updated on Fri Dec 19 2025 00:03:12 GMT+0000 (Coordinated Universal Time)

1 61779U 24199AW 25352.61534863 .00008858 00000+0 28052-3 0 9996 2 61779 97.3260 218.3506 0012523 230.4635 129.5502 15.32899729109414
UTC large
Height (km)
Speed (km/s)
/
Latitude / Longitude
Inclination (degrees)
Orbital Period (minutes)
Azimuth
Elevation
Range (km)
Doppler Factor

Next 0 passes for location: London (51.5072 / 0.1276)

Sorry there are no passes over London.